Flag Weather past 2 weeks in Anchorage, Alaska, U.S.A.

Now
29 °F

Overcast.


Feels Like: 24 °F
Forecast: 18 / 28 °F
Wind: 5 mph from North

Location: Lake Hood Seaplane

Current Time: Nov 26, 2014 at 8:54:59 AM

Latest Report: Nov 26, 2014 at 7:53 AM


Visibility: 10 mi

Pressure: 30.34 "Hg

Humidity: 82%

Dew point: 24 °F

Location of AnchorageLocation

Historic Weather in Anchorage — Graph

°F

Anchorage temperature yesterday

Maximum temperature yesterday: 36 °F (at 2:00 PM)
Minimum temperature yesterday: 29 °F (at 12:53 AM)
Average temperature yesterday: 32 °F

Past Weeks' High & Low Weather Summary

 TemperatureHumidityPressure
High48 °F (Nov 18, 8:53 PM)97% (Nov 19, 12:53 PM)30.35 "Hg (Nov 19, 12:53 PM)
Low22 °F (Nov 14, 7:53 AM)48% (Nov 19, 1:53 AM)28.90 "Hg (Nov 21, 3:53 PM)
Average32 °F76%29.81 "Hg
* Reported Nov 11 7:53 AM — Nov 26 7:53 AM, Anchorage, Weather by CustomWeather, © 2014

Note: Actual official high and low records may vary slightly from our data, if they occured in-between our weather recording intervals... More about our weather records

Advertising

Anchorage weather history for previous 24 hours

 ConditionsComfort  
Time TempWeatherWind HumidityBarometerVisibility
7:53 AM
Nov 26
29 °FOvercast.5 mph82%30.34 "Hg10 mi
6:53 AM30 °FLow clouds.3 mph85%30.35 "Hg10 mi
5:53 AM30 °FOvercast.7 mph85%30.34 "Hg10 mi
4:53 AM30 °FLow clouds.6 mph85%30.35 "Hg10 mi
3:53 AM31 °FOvercast.6 mph82%30.35 "Hg10 mi
2:53 AM30 °FOvercast.6 mph85%30.35 "Hg10 mi
1:53 AM30 °FMostly cloudy.5 mph85%30.35 "Hg10 mi
1:02 AM32 °FLow clouds.5 mph87%30.34 "Hg10 mi
12:53 AM32 °FMostly cloudy.3 mph85%30.34 "Hg10 mi
11:53 PM
Nov 25
32 °FMostly cloudy.5 mph85%30.34 "Hg10 mi
10:53 PM32 °FLight snow. Ice fog.7 mph85%30.33 "Hg6 mi
9:53 PM32 °FLow clouds.6 mph85%30.31 "Hg10 mi
8:53 PM32 °FOvercast.6 mph88%30.29 "Hg10 mi
7:53 PM32 °FPassing clouds.5 mph88%30.28 "Hg10 mi
6:53 PM32 °FMostly cloudy.5 mph88%30.27 "Hg10 mi
5:53 PM32 °FOvercast.7 mph88%30.27 "Hg10 mi
4:53 PM33 °FMostly cloudy.5 mph85%30.26 "Hg10 mi
3:53 PM33 °FOvercast.6 mph82%30.24 "Hg10 mi
2:53 PM35 °FOvercast.3 mph78%30.24 "Hg10 mi
2:00 PM36 °FOvercast.No wind75%30.23 "HgN/A
12:53 PM33 °FMostly cloudy.5 mph82%30.24 "Hg10 mi
11:53 AM33 °FOvercast.3 mph85%30.23 "Hg10 mi
10:53 AM33 °FOvercast.3 mph85%30.21 "Hg10 mi
9:53 AM32 °FMostly cloudy.3 mph85%30.18 "Hg10 mi
8:53 AM32 °FOvercast.No wind85%30.15 "Hg10 mi
Weather by CustomWeather, © 2014

See weather overviewHow to use our weather pages